Location: Navalespino
(40.5894°N, 4.2660°W)
Time: 12:20:11
(UTC+00:00)

Cosmos 1656 - Pass Details

Date: 18 April 2024
Orbit: 799 x 847 km, 71.1° (Epoch: 24 May)

Event Time Altitude Azimuth Distance (km) Brightness Sun altitude
Rises 20:32:47 0° 193° (SSW) 3,363 6.6 -16.9°
Reaches altitude 10° 20:35:14 10° 191° (S) 2,427 5.9 -17.3°
Maximum altitude 20:40:44 67° 110° (ESE) 889 3.5 -18.2°
Drops below altitude 10° 20:46:12 10° 29° (NNE) 2,410 6.1 -19.1°
Sets 20:48:37 0° 26° (NNE) 3,339 6.9 -19.4°
